星链-37326(STARLINK-37326)

导读

STARLINK-37326(NORAD编号68542)是美国SpaceX公司星链(Starlink)低轨互联网星座中的一颗卫星,属于二代星链(Gen2)组网卫星。该卫星运行于近地轨道,采用Ku、Ka频段通信,配备氪离子推进系统与自主碰撞规避系统,依托星链星座的星间激光链路实现全球低时延网络覆盖,为全球未联网区域提供高速互联网接入服务,也具备一定的商业和军事应用潜力。单颗星链卫星质量约227-260kg,设计寿命约5年,这类卫星通过SpaceX可重复使用猎鹰9火箭批量发射入轨,持续推进星链星座的组网建设,推动全球卫星互联网商业化落地。

基本信息
目录编号:
68542
目录名称:
STARLINK-37326
国际标识:
2026-070A
轨道中心:
EARTH
卫星名称:
星链-37326
卫星全名:
星链-37326(STARLINK-37326)
卫星状态:
在轨 (已飞行163 天)
发射日期:
2026-04-02 UTC
国别 :
美国 (US)
星等 :
--
该卫星已列入 空间交会检测服务 Space Conjunction Data Service (SCDS) ,当前飞行风险评估等级: 高风险
轨道信息
数据来源 国际轨道数据
星历时间: 2026-09-11T15:37:12+0800
20小时前
查看轨道信息
半长轴: 6840.818km
偏心率: 0.0001344
轨道倾角: 53.157°
近地点辐角 125.659°
升交点赤经 216.929°
平近点角 234.454°
近地点: 461.761km
远地点: 463.601km
周期: 93.847分钟
每日圈数: 15.344076
详细信息
固有亮度:
5
最大亮度:
2.5
卫星平台:
Starlink V1.0
覆盖范围:
全球
运营商:
太空探索技术公司
运营商所在国:
美国
制造商(研发单位):
太空探索技术公司
制造商所在国:
美国
使用方式:
暂无
卫星简介
Starlink 计划是 SpaceX 推出的全球卫星互联网项目,通过发射低轨道卫星,为全球尤其是偏远地区提供高速、低延迟的互联网服务。自 2019 年起,Starlink 已部署数千颗卫星,旨在缩小全球数字鸿沟,推动互联网普及。该项目还为军事、航空等行业提供通信支持,带来广泛经济效益。
2D轨道图
3D轨道图
轨道高度分析图
轨道倾角分析图
轨道综合分析图
查看轨道综合分析图
交会数据列表
事件ID 空间交会对象 最接近时刻(TCA) 交会距离 交会风险概率(CRP) 交会风险指数(CRI) 操作
CDM_260913-183106-824706-854221
2026-09-13T
18:31:37+0000
0.220 km
中距离
5.667093E-4 高风险 0.9
CDM_260913-034006-824706-854221
2026-09-13T
03:40:39+0000
0.444 km
远距离
1.768199E-4 高风险 0.8
CDM_260910-102504-975606-854225
2026-09-10T
10:25:33+0000
1.149 km
极远距离
1.439019E-5 中风险 0.58
CDM_260913-051406-824706-854221
2026-09-13T
05:14:26+0000
2.014 km
极远距离
1.797543E-6 低风险 0.4
CDM_260913-200506-824706-854221
2026-09-13T
20:05:24+0000
2.274 km
极远距离
1.372517E-6 低风险 0.38
CDM_260913-071905-316006-854221
2026-09-13T
07:19:50+0000
2.827 km
极远距离
1.291598E-6 低风险 0.37
CDM_260913-020606-824706-854221
2026-09-13T
02:06:51+0000
2.366 km
极远距离
1.272202E-6 低风险 0.37
CDM_260913-165706-824706-854221
2026-09-13T
16:57:50+0000
2.621 km
极远距离
1.067154E-6 低风险 0.36
与全量物体交会距离演化趋势
与全量物体交会风险概率演化趋势